Home   Weather   Ottawa   Past weeks
Flag for Canada

Past Weather in Ottawa, Ontario, Canada — Yesterday and Last 2 Weeks

Now
41 °F

Mostly cloudy.


Feels Like: 37 °F
Forecast: N/A
Wind: 6 mph from Southeast

Location: Ottawa Int'L. Ont.

Current Time: Mar 21, 2019 at 4:33:12 pm

Latest Report: Mar 21, 2019 at 4:00 pm


Visibility: 15 mi

Pressure: 29.88 "Hg

Humidity: 66%

Dew Point: 30 °F

Location of OttawaLocation

Past Weather in Ottawa — Graph

°F

Ottawa Temperature Yesterday

Maximum temperature yesterday: 45 °F (at 3:00 pm)
Minimum temperature yesterday: 19 °F (at 7:00 am)
Average temperature yesterday: 33 °F

High & Low Weather Summary for the Past Weeks

 TemperatureHumidityPressure
High46 °F (Mar 15, 8:00 am)100% (Mar 10, 3:00 pm)30.43 "Hg (Mar 10, 3:00 pm)
Low-6 °F (Mar 7, 6:00 am)26% (Mar 19, 1:00 pm)29.50 "Hg (Mar 15, 6:00 am)
Average27 °F71%30.07 "Hg
* Reported Mar 6 2:00 pm — Mar 21 3:00 pm, Ottawa. Weather by CustomWeather, © 2019

Note: Actual official high and low records may vary slightly from our data, if they occured in-between our weather recording intervals... More about our weather records

Advertising

Ottawa Weather History for the Previous 24 Hours

Scroll right to see more
 ConditionsComfort  
Time TempWeatherWind HumidityBarometerVisibility
3:00 pm
Thu, Mar 21
43 °FMostly cloudy.7 mph61%29.90 "Hg15 mi
2:00 pm43 °FMostly cloudy.7 mph61%29.95 "Hg15 mi
1:00 pm43 °FMostly cloudy.8 mph57%29.97 "Hg15 mi
12:00 pm43 °FBroken clouds.10 mph61%29.98 "Hg15 mi
11:00 am41 °FMostly cloudy.12 mph70%30.00 "Hg15 mi
10:00 am39 °FPartly sunny.8 mph75%30.01 "Hg15 mi
9:00 am39 °FMostly cloudy.12 mph70%30.03 "Hg15 mi
8:00 am37 °FMostly cloudy.8 mph65%30.04 "Hg15 mi
7:00 am34 °FMostly cloudy.6 mph70%30.04 "Hg15 mi
6:00 am32 °FMostly cloudy.5 mph80%30.05 "Hg15 mi
5:00 am32 °FMostly cloudy.6 mph80%30.06 "Hg15 mi
4:00 am34 °FOvercast.6 mph75%30.08 "Hg15 mi
3:00 am36 °FOvercast.6 mph65%30.09 "Hg15 mi
2:00 am34 °FMostly cloudy.6 mph70%30.09 "Hg15 mi
1:00 am34 °FPassing clouds.7 mph70%30.10 "Hg15 mi
12:00 am36 °FOvercast.6 mph65%30.11 "Hg15 mi
11:26 pm
Wed, Mar 20
36 °FOvercast.6 mph65%30.12 "Hg15 mi
11:00 pm37 °FOvercast.3 mph60%30.12 "Hg15 mi
10:00 pm37 °FOvercast.6 mph60%30.14 "Hg15 mi
9:00 pm37 °FPassing clouds.6 mph65%30.14 "Hg15 mi
8:00 pm39 °FPassing clouds.9 mph61%30.14 "Hg15 mi
7:00 pm41 °FPartly sunny.9 mph57%30.14 "Hg15 mi
6:00 pm43 °FBroken clouds.12 mph49%30.14 "Hg15 mi
5:00 pm43 °FBroken clouds.12 mph53%30.14 "Hg15 mi
4:00 pm45 °FBroken clouds.14 mph49%30.15 "Hg15 mi
Weather by CustomWeather, © 2019

See weather overview